Location: Peterborough
(44.3091°N, 78.3197°W)
Time: 04:34:19
(UTC-04:00)

deb Explorer IX - Visible Passes

Search period start: 02 April 2023 00:00
Search period end: 12 April 2023 00:00
Orbit: 536 x 1027 km, 38.8° (Epoch: 01 April)

Date Brightness Start Highest point End Pass type
(mag) Time Alt. Az. Time Alt. Az. Time Alt. Az.
02 Apr ? 05:20:07 20° SSW 05:22:15 28° SSE 05:26:06 10° ESE visible
03 Apr ? 04:46:15 26° S 04:46:46 27° SSE 04:50:41 10° ESE visible
04 Apr ? 04:12:18 24° SE 04:12:18 24° SE 04:15:12 10° ESE visible
04 Apr ? 05:52:43 14° WSW 05:56:41 42° S 06:00:53 10° ESE visible
05 Apr ? 03:38:17 16° ESE 03:38:17 16° ESE 03:39:37 10° ESE visible
05 Apr ? 05:18:42 25° SW 05:21:04 42° S 05:25:25 10° ESE visible
06 Apr ? 04:44:36 39° SSW 04:45:22 41° S 04:49:52 10° ESE visible
07 Apr ? 04:10:26 38° SE 04:10:26 38° SE 04:14:14 10° E visible
07 Apr ? 05:50:51 13° WSW 05:55:11 42° S 05:59:31 10° ESE visible
08 Apr ? 03:36:14 25° ESE 03:36:14 25° ESE 03:38:33 10° E visible
08 Apr ? 05:16:39 24° WSW 05:19:22 45° S 05:23:54 10° ESE visible
09 Apr ? 03:02:00 14° ESE 03:02:00 14° ESE 03:02:46 10° E visible
09 Apr ? 04:42:24 41° SW 04:43:28 47° S 04:48:12 10° ESE visible
10 Apr ? 04:08:09 46° SSE 04:08:09 46° SSE 04:12:25 10° ESE visible
10 Apr ? 05:48:34 11° W 05:53:00 32° SSW 05:57:13 10° SE visible
11 Apr ? 03:33:56 29° ESE 03:33:56 29° ESE 03:36:34 10° ESE visible
11 Apr ? 05:14:20 22° WSW 05:17:01 35° SSW 05:21:30 10° SE visible
